| time (UTC) | temp F | wind direction | speed MPH | gust MPH | rain 1hr in | rain 24hr in | rain mn in | humidity % | barometer mb |
| 20260506190053 | 57 | 323 | 3.0 | 9.0 | 0.00 | 0.03 | 0.03 | 79 | 1015.2 |
| 20260506184651 | 57 | 313 | 3.0 | 6.0 | 0.00 | 0.03 | 0.03 | 80 | 1015.4 |
| 20260506183058 | 57 | 300 | 2.0 | 9.0 | 0.00 | 0.03 | 0.03 | 80 | 1015.5 |
| 20260506181601 | 56 | 38 | 4.0 | 14.0 | 0.00 | 0.03 | 0.03 | 81 | 1014.8 |
| 20260506180050 | 56 | 348 | 8.0 | 14.0 | 0.00 | 0.03 | 0.03 | 82 | 1014.0 |
| 20260506174549 | 55 | 13 | 5.0 | 13.0 | 0.00 | 0.03 | 0.03 | 84 | 1014.2 |
| 20260506173116 | 54 | 38 | 5.0 | 12.0 | 0.00 | 0.03 | 0.03 | 85 | 1014.5 |
| 20260506171554 | 54 | 21 | 6.0 | 12.0 | 0.00 | 0.03 | 0.03 | 85 | 1014.7 |
| 20260506170055 | 54 | 12 | 5.0 | 10.0 | 0.00 | 0.03 | 0.03 | 86 | 1014.6 |
| 20260506164546 | 54 | 51 | 6.0 | 12.0 | 0.00 | 0.03 | 0.03 | 87 | 1014.5 |
| 20260506163046 | 53 | 42 | 5.0 | 11.0 | 0.00 | 0.03 | 0.03 | 88 | 1014.8 |
| 20260506161545 | 53 | 23 | 4.0 | 12.0 | 0.00 | 0.03 | 0.03 | 88 | 1014.7 |
| 20260506160057 | 53 | 304 | 3.0 | 11.0 | 0.00 | 0.03 | 0.03 | 88 | 1014.6 |
| 20260506154547 | 53 | 38 | 5.0 | 11.0 | 0.02 | 0.03 | 0.03 | 89 | 1014.1 |
| 20260506153043 | 53 | 319 | 5.0 | 13.0 | 0.03 | 0.03 | 0.03 | 90 | 1013.8 |
| 20260506151545 | 53 | 344 | 6.0 | 11.0 | 0.03 | 0.03 | 0.03 | 90 | 1014.5 |
| 20260506150043 | 52 | 83 | 2.0 | 8.0 | 0.03 | 0.03 | 0.03 | 88 | 1015.7 |
| 20260506144544 | 53 | 304 | 2.0 | 5.0 | 0.01 | 0.01 | 0.01 | 86 | 1016.5 |
| 20260506143038 | 53 | 44 | 3.0 | 9.0 | 0.00 | 0.00 | 0.00 | 85 | 1015.7 |
| 20260506141536 | 53 | 15 | 7.0 | 15.0 | 0.00 | 0.00 | 0.00 | 85 | 1014.1 |
| 20260506140036 | 53 | 31 | 5.0 | 13.0 | 0.00 | 0.00 | 0.00 | 84 | 1014.3 |
| 20260506134531 | 53 | 341 | 4.0 | 11.0 | 0.00 | 0.00 | 0.00 | 83 | 1014.8 |
| 20260506133027 | 53 | 321 | 5.0 | 12.0 | 0.00 | 0.00 | 0.00 | 83 | 1014.1 |
| 20260506131541 | 53 | 360 | 5.0 | 12.0 | 0.00 | 0.00 | 0.00 | 82 | 1013.8 |
| 20260506130035 | 54 | 5 | 5.0 | 14.0 | 0.00 | 0.00 | 0.00 | 81 | 1013.7 |
| 20260506124519 | 54 | 355 | 5.0 | 14.0 | 0.00 | 0.00 | 0.00 | 80 | 1013.2 |
| 20260506123017 | 55 | 38 | 5.0 | 10.0 | 0.00 | 0.00 | 0.00 | 78 | 1013.0 |
| 20260506121515 | 55 | 310 | 6.0 | 14.0 | 0.00 | 0.00 | 0.00 | 77 | 1013.0 |
| 20260506120017 | 56 | 40 | 8.0 | 14.0 | 0.00 | 0.00 | 0.00 | 77 | 1012.7 |
| 20260506114508 | 56 | 336 | 7.0 | 13.0 | 0.00 | 0.00 | 0.00 | 77 | 1012.6 |
| 20260506113006 | 56 | 35 | 6.0 | 15.0 | 0.00 | 0.00 | 0.00 | 76 | 1012.4 |
| 20260506111509 | 57 | 20 | 4.0 | 10.0 | 0.00 | 0.00 | 0.00 | 77 | 1012.1 |
| 20260506110106 | 57 | 32 | 5.0 | 11.0 | 0.00 | 0.00 | 0.00 | 77 | 1011.6 |
| 20260506104559 | 57 | 5 | 5.0 | 10.0 | 0.00 | 0.00 | 0.00 | 77 | 1011.3 |
| 20260506103055 | 57 | 304 | 5.0 | 13.0 | 0.00 | 0.00 | 0.00 | 77 | 1011.2 |
| 20260506101553 | 57 | 28 | 3.0 | 12.0 | 0.00 | 0.00 | 0.00 | 77 | 1010.8 |
| 20260506100050 | 58 | 34 | 4.0 | 11.0 | 0.00 | 0.00 | 0.00 | 77 | 1010.6 |
| 20260506094601 | 58 | 38 | 3.0 | 9.0 | 0.00 | 0.00 | 0.00 | 78 | 1010.4 |
| 20260506093047 | 58 | 313 | 3.0 | 11.0 | 0.00 | 0.00 | 0.00 | 78 | 1010.4 |
| 20260506091548 | 58 | 57 | 3.0 | 10.0 | 0.00 | 0.00 | 0.00 | 78 | 1010.3 |
| 20260506090042 | 59 | 26 | 7.0 | 12.0 | 0.00 | 0.00 | 0.00 | 78 | 1010.1 |
| 20260506084543 | 59 | 22 | 5.0 | 11.0 | 0.00 | 0.00 | 0.00 | 79 | 1010.1 |
| 20260506083038 | 59 | 351 | 3.0 | 11.0 | 0.00 | 0.00 | 0.00 | 79 | 1009.9 |
| 20260506081535 | 60 | 5 | 3.0 | 10.0 | 0.00 | 0.00 | 0.00 | 79 | 1009.7 |
| 20260506073029 | 61 | 30 | 3.0 | 10.0 | 0.00 | 0.00 | 0.00 | 79 | 1009.4 |
| 20260506071529 | 61 | 333 | 3.0 | 8.0 | 0.00 | 0.00 | 0.00 | 79 | 1009.4 |
| 20260506061521 | 62 | 32 | 4.0 | 11.0 | 0.00 | 0.00 | 0.00 | 79 | 1009.3 |
| 20260506044505 | 64 | 35 | 6.0 | 11.0 | 0.00 | 0.00 | 0.00 | 77 | 1009.1 |
| 20260506043003 | 65 | 17 | 6.0 | 12.0 | 0.00 | 0.00 | 0.00 | 77 | 1009.0 |
| 20260506041559 | 66 | 360 | 6.0 | 13.0 | 0.00 | 0.00 | 0.00 | 76 | 1009.1 |
| 20260506040056 | 67 | 325 | 5.0 | 11.0 | 0.00 | 0.00 | 0.00 | 75 | 1009.2 |
| 20260506034553 | 67 | 32 | 5.0 | 12.0 | 0.00 | 0.00 | 0.00 | 74 | 1008.8 |
| 20260506033049 | 68 | 24 | 5.0 | 12.0 | 0.00 | 0.00 | 0.00 | 73 | 1008.3 |
| 20260506031550 | 68 | 5 | 5.0 | 10.0 | 0.00 | 0.00 | 0.00 | 73 | 1007.9 |
| 20260506030044 | 69 | 5 | 6.0 | 12.0 | 0.00 | 0.00 | 0.00 | 73 | 1007.4 |
| 20260506024547 | 69 | 331 | 5.0 | 14.0 | 0.00 | 0.00 | 0.00 | 72 | 1007.3 |
| 20260506023038 | 70 | 53 | 3.0 | 12.0 | 0.00 | 0.00 | 0.00 | 72 | 1007.1 |
| 20260506021536 | 71 | 355 | 5.0 | 11.0 | 0.00 | 0.00 | 0.00 | 72 | 1006.9 |
| 20260506020034 | 72 | 21 | 6.0 | 12.0 | 0.00 | 0.00 | 0.00 | 71 | 1006.5 |
| 20260506014536 | 73 | 36 | 5.0 | 11.0 | 0.00 | 0.00 | 0.00 | 70 | 1005.9 |
| 20260506013029 | 73 | 67 | 4.0 | 12.0 | 0.00 | 0.00 | 0.00 | 70 | 1005.6 |
| 20260506011526 | 74 | 36 | 4.0 | 9.0 | 0.00 | 0.00 | 0.00 | 69 | 1005.1 |
| 20260506010032 | 74 | 323 | 4.0 | 9.0 | 0.00 | 0.00 | 0.00 | 69 | 1005.2 |
| 20260506004525 | 75 | 331 | 6.0 | 12.0 | 0.00 | 0.00 | 0.00 | 67 | 1005.2 |
| 20260506003025 | 76 | 325 | 1.0 | 9.0 | 0.00 | 0.00 | 0.00 | 66 | 1004.7 |
| 20260506001532 | 76 | 9 | 4.0 | 12.0 | 0.00 | 0.00 | 0.00 | 64 | 1004.7 |
| 20260506000023 | 77 | 36 | 6.0 | 14.0 | 0.00 | 0.00 | 0.00 | 63 | 1004.8 |
| 20260505234528 | 79 | 360 | 5.0 | 14.0 | 0.00 | 0.00 | 0.00 | 63 | 1004.4 |
| 20260505233022 | 80 | 317 | 6.0 | 13.0 | 0.00 | 0.00 | 0.00 | 63 | 1004.0 |
| 20260505231522 | 81 | 297 | 7.0 | 13.0 | 0.00 | 0.00 | 0.00 | 63 | 1003.8 |
| 20260505230043 | 83 | 333 | 6.0 | 11.0 | 0.00 | 0.00 | 0.00 | 60 | 1003.6 |
| 20260505224521 | 85 | 5 | 4.0 | 13.0 | 0.00 | 0.00 | 0.00 | 55 | 1003.5 |
| 20260505223020 | 86 | 47 | 4.0 | 10.0 | 0.00 | 0.00 | 0.00 | 52 | 1003.3 |
| 20260505221520 | 90 | 17 | 1.0 | 4.0 | 0.00 | 0.00 | 0.00 | 51 | 1003.0 |
| 20260505220029 | 89 | 267 | 1.0 | 6.0 | 0.00 | 0.00 | 0.00 | 53 | 1002.8 |
| 20260505214518 | 89 | 295 | 1.0 | 6.0 | 0.00 | 0.00 | 0.00 | 53 | 1003.0 |
| 20260505213016 | 90 | 265 | 2.0 | 8.0 | 0.00 | 0.00 | 0.00 | 50 | 1003.0 |
| 20260505211516 | 90 | 292 | 2.0 | 8.0 | 0.00 | 0.00 | 0.00 | 50 | 1003.0 |
| 20260505210015 | 91 | 137 | 1.0 | 5.0 | 0.00 | 0.00 | 0.00 | 52 | 1003.5 |
| 20260505204511 | 90 | 175 | 0.0 | 5.0 | 0.00 | 0.00 | 0.00 | 53 | 1003.7 |
| 20260505203015 | 90 | 279 | 2.0 | 8.0 | 0.00 | 0.00 | 0.00 | 52 | 1003.6 |
| 20260505201513 | 89 | 266 | 3.0 | 10.0 | 0.00 | 0.00 | 0.00 | 54 | 1004.0 |
| 20260505200007 | 89 | 192 | 0.0 | 6.0 | 0.00 | 0.00 | 0.00 | 55 | 1004.1 |
| 20260505194504 | 89 | 208 | 3.0 | 10.0 | 0.00 | 0.00 | 0.00 | 56 | 1004.2 |
| 20260505193001 | 88 | 148 | 1.0 | 6.0 | 0.00 | 0.00 | 0.00 | 59 | 1004.2 |
| 20260505191618 | 88 | 154 | 2.0 | 11.0 | 0.00 | 0.00 | 0.00 | 62 | 1004.1 |